Weather History for Blacksburg, VA

Change the Weather History Date:

Tuesday, November 20, 2012

  Actual Average Record
Temperature  
Mean Temperature 44 °F 42 °F  
Max Temperature 57 °F 54 °F 72 °F (1985)
Min Temperature 30 °F 30 °F 15 °F (1969)
Degree Days  
Heating Degree Days 21 23  
Month to date heating degree days 492 399  
Since 1 July heating degree days 1006 926  
Cooling Degree Days 0 0  
Month to date cooling degree days 0 0  
Year to date cooling degree days 716 573  
Moisture  
Dew Point 38 °F    
Average Humidity 74    
Maximum Humidity 100    
Minimum Humidity 47    
Precipitation  
Precipitation 0.00 in 0.10 in 1.05 in (1952)
Month to date precipitation 0.95 1.87  
Year to date precipitation 33.99 36.94  
Snow  
Snow 0.00 in - - ()
Month to date snowfall 0.0  
Since 1 July snowfall 0.6  
Since 1 September snowfall 0.6  
Snow Depth 0.00 in    
Sea Level Pressure  
Sea Level Pressure 30.14 in    
Wind  
Wind Speed 1 mph (WNW)    
Max Wind Speed 6 mph    
Max Gust Speed -    
Visibility 7 miles    
Events Fog    
T = Trace of Precipitation, MM = Missing Value Source: NWS Daily Summary

Daily Weather History Graph

Daily Weather History Graph

Search for Another Location

Airport:

Trip Planner

Search our weather history database for the weather conditions in past years. The results will help you decide how hot, cold, wet, or windy it might be!

Date:

Astronomy

Nov. 20, 2012 Rise Set
Actual Time 7:06 AM EST 5:08 PM EST
Civil Twilight 6:38 AM EST 5:36 PM EST
Nautical Twilight 6:06 AM EST 6:07 PM EST
Astronomical Twilight 5:35 AM EST 6:39 PM EST
Moon 12:44 PM EST (11/20) No Moon Set
Length of Visible Light 10h 58m
Length of Day
10h 01m
Waxing Crescent, 51% of the Moon is Illuminated
Nov 20
Waxing Crescent
Nov 28
Full
Dec 6
Last Quarter
Dec 13
New
Dec 20
First Quarter

Hourly Weather History & Observations

Time (EST) Temp. Dew Point Humidity Pressure Visibility Wind Dir Wind Speed Gust Speed Precip Events Conditions
12:15 AM 35.6 °F 35.6 °F 100% 30.22 in 7.0 mi Calm Calm - N/A   Clear
12:35 AM 35.6 °F 35.6 °F 100% 30.22 in 4.0 mi Calm Calm - N/A   Clear
12:55 AM 35.6 °F 35.6 °F 100% 30.21 in 7.0 mi Calm Calm - N/A   Clear
1:15 AM 35.6 °F 35.6 °F 100% 30.20 in 4.0 mi Calm Calm - N/A   Clear
1:35 AM 35.6 °F 35.6 °F 100% 30.19 in 4.0 mi Calm Calm - N/A   Clear
1:55 AM 35.6 °F 35.6 °F 100% 30.20 in 7.0 mi Calm Calm - N/A   Clear
2:15 AM 35.6 °F 35.6 °F 100% 30.19 in 5.0 mi Calm Calm - N/A   Clear
2:35 AM 35.6 °F 35.6 °F 100% 30.20 in 4.0 mi Calm Calm - N/A   Clear
2:55 AM 33.8 °F 33.8 °F 100% 30.19 in 4.0 mi Calm Calm - N/A   Clear
3:15 AM 33.8 °F 33.8 °F 100% 30.18 in 2.5 mi Calm Calm - N/A   Clear
3:35 AM 35.6 °F 35.6 °F 100% 30.18 in 5.0 mi Calm Calm - N/A   Clear
7:15 AM 35.6 °F 35.6 °F 100% 30.19 in 0.8 mi Calm Calm - N/A   Overcast
7:35 AM 35.6 °F 35.6 °F 100% 30.18 in 0.2 mi Calm Calm - N/A Fog Fog
7:55 AM 35.6 °F 35.6 °F 100% 30.19 in 0.2 mi Calm Calm - N/A Fog Fog
8:15 AM 37.4 °F 37.4 °F 100% 30.19 in 0.2 mi Calm Calm - N/A Fog Fog
8:35 AM 37.4 °F 37.4 °F 100% 30.20 in 0.2 mi Calm Calm - N/A Fog Fog
8:55 AM 37.4 °F 37.4 °F 100% 30.20 in 0.2 mi Calm Calm - N/A Fog Fog
9:15 AM 39.2 °F 39.2 °F 100% 30.19 in 0.8 mi Calm Calm - N/A   Overcast
9:35 AM 39.2 °F 39.2 °F 100% 30.19 in 2.5 mi Calm Calm - N/A   Scattered Clouds
9:55 AM 42.8 °F 42.8 °F 100% 30.19 in 3.0 mi Calm Calm - N/A   Clear
10:15 AM 42.8 °F 42.8 °F 100% 30.18 in 3.0 mi Calm Calm - N/A   Clear
10:35 AM 42.8 °F 42.8 °F 100% 30.18 in 4.0 mi Calm Calm - N/A   Clear
10:55 AM 44.6 °F 44.6 °F 100% 30.17 in 5.0 mi Calm Calm - N/A   Clear
11:15 AM 44.6 °F 44.6 °F 100% 30.16 in 7.0 mi Calm Calm - N/A   Clear
11:35 AM 48.2 °F 46.4 °F 93% 30.16 in 10.0 mi NW 5.8 mph - N/A   Clear
11:55 AM 48.2 °F 44.6 °F 87% 30.15 in 10.0 mi West 5.8 mph - N/A   Clear
12:15 PM 50.0 °F 44.6 °F 82% 30.14 in 10.0 mi West 4.6 mph - N/A   Clear
12:35 PM 51.8 °F 44.6 °F 76% 30.12 in 10.0 mi West 3.5 mph - N/A   Clear
12:55 PM 53.6 °F 44.6 °F 72% 30.11 in 10.0 mi WNW 3.5 mph - N/A   Clear
1:15 PM 53.6 °F 42.8 °F 67% 30.11 in 10.0 mi West 5.8 mph - N/A   Clear
1:35 PM 55.4 °F 42.8 °F 63% 30.10 in 10.0 mi West 6.9 mph - N/A   Clear
2:15 PM 57.2 °F 39.2 °F 51% 30.09 in 10.0 mi WNW 6.9 mph - N/A   Clear
2:35 PM 59.0 °F 39.2 °F 48% 30.08 in 10.0 mi WNW 5.8 mph - N/A   Clear
2:55 PM 57.2 °F 37.4 °F 48% 30.08 in 10.0 mi West 4.6 mph - N/A   Clear
3:15 PM 60.8 °F 37.4 °F 42% 30.08 in 10.0 mi WNW 6.9 mph - N/A   Clear
3:35 PM 59.0 °F 37.4 °F 45% 30.08 in 10.0 mi NW 6.9 mph - N/A   Clear
3:55 PM 57.2 °F 37.4 °F 48% 30.09 in 10.0 mi WNW 3.5 mph - N/A   Clear
4:15 PM 57.2 °F 37.4 °F 48% 30.09 in 10.0 mi WNW 5.8 mph - N/A   Clear
4:35 PM 57.2 °F 39.2 °F 51% 30.09 in 10.0 mi WNW 4.6 mph - N/A   Clear
4:55 PM 55.4 °F 39.2 °F 54% 30.09 in 10.0 mi WNW 3.5 mph - N/A   Clear
5:15 PM 51.8 °F 39.2 °F 62% 30.09 in 10.0 mi NW 4.6 mph - N/A   Clear
5:35 PM 48.2 °F 37.4 °F 66% 30.09 in 10.0 mi Calm Calm - N/A   Clear
5:55 PM 44.6 °F 37.4 °F 76% 30.10 in 10.0 mi Calm Calm - N/A   Clear
6:15 PM 44.6 °F 37.4 °F 76% 30.10 in 10.0 mi Calm Calm - N/A   Clear
6:35 PM 42.8 °F 37.4 °F 81% 30.11 in 10.0 mi Calm Calm - N/A   Clear
6:55 PM 41.0 °F 37.4 °F 87% 30.11 in 10.0 mi Calm Calm - N/A   Clear
7:15 PM 39.2 °F 37.4 °F 93% 30.11 in 10.0 mi Calm Calm - N/A   Clear
7:55 PM 39.2 °F 35.6 °F 87% 30.12 in 10.0 mi Calm Calm - N/A   Clear
8:15 PM 37.4 °F 35.6 °F 93% 30.12 in 10.0 mi Calm Calm - N/A   Clear
8:35 PM 37.4 °F 33.8 °F 87% 30.12 in 10.0 mi Calm Calm - N/A   Clear
8:55 PM 37.4 °F 35.6 °F 93% 30.12 in 10.0 mi Calm Calm - N/A   Clear
9:15 PM 35.6 °F 35.6 °F 100% 30.13 in 10.0 mi Calm Calm - N/A   Clear
9:35 PM 35.6 °F 35.6 °F 100% 30.13 in 10.0 mi Calm Calm - N/A   Clear
9:55 PM 35.6 °F 33.8 °F 93% 30.13 in 10.0 mi Calm Calm - N/A   Clear
10:15 PM 35.6 °F 33.8 °F 93% 30.13 in 10.0 mi Calm Calm - N/A   Clear
10:35 PM 35.6 °F 35.6 °F 100% 30.13 in 10.0 mi Calm Calm - N/A   Clear
10:55 PM 33.8 °F 33.8 °F 100% 30.13 in 10.0 mi Calm Calm - N/A   Clear
11:15 PM 35.6 °F 33.8 °F 93% 30.13 in 10.0 mi Calm Calm - N/A   Clear
11:35 PM 33.8 °F 33.8 °F 100% 30.13 in 10.0 mi Calm Calm - N/A   Clear
11:55 PM 33.8 °F 33.8 °F 100% 30.13 in 10.0 mi Calm Calm - N/A   Clear